User: anonymous   Login
Location: Unspecified
(0.0000°N, 0.0000°E)
Time: 22:42:12
(UTC+00:00)
Language:

Intasat - Orbit

View from above orbital plane
View from above orbital plane
View from above satellite
View from above satellite

Ground track
Ground track

The orbit data is extracted from the following two-line orbital elements,

1  7531U 74089C   18174.89793970 -.00000061 +00000-0 -99762-4 0  9993
2  7531 101.6873 142.3049 0011090 335.3148 048.0485 12.53496742995235
Epoch (UTC): 23 June 2018 21:33:01
Eccentricity: 0.0011090
inclination: 101.6873°
perigee height: 1441 km
apogee height: 1458 km
right ascension of ascending node: 142.3049°
argument of perigee: 335.3148°
revolutions per day: 12.53496742
mean anomaly at epoch: 48.0485°
orbit number at epoch: 99523

The dashed part of the orbit path shows where the satellite is in the earth's shadow,  

DLR